#timestamp,LO_Frequency,Hit,StdDev 
1657688415.8,286047000.8,N
1657688435.7,286046998.8,N
1657688455.5,286046998.7,N
1657688475.3,286046998.6,N
1657688495.2,286047000.2,N
1657688515.0,286047001.0,N
1657688515.9,286047001.0,N
1657688535.7,286047000.5,N
1657688555.6,286047000.5,N
1657688575.4,286047001.9,N
1657688595.3,286047001.8,N
1657688615.1,286046999.8,N
1657688635.8,286047000.2,N
1657688655.7,286047000.1,N
1657688675.5,286047000.1,N
1657688695.4,286046999.9,N
1657688715.2,286047000.6,N
1657688735.0,286047000.3,N
1657688735.9,286047000.3,N
1657688755.8,286047000.5,N
1657688775.6,286047000.4,N
1657688795.5,286047000.5,N
1657688815.3,286047000.4,N
1657688835.1,286046999.8,N
1657688855.9,286047000.5,N
1657688875.7,286047000.0,N
1657688895.5,286047000.0,N
1657688915.4,286047000.5,N
1657688935.2,286047000.5,N
1657688955.1,286047000.3,N
1657688956.0,286047000.3,N
1657688975.8,286047000.5,N
1657688995.6,286047000.8,N
1657689015.5,286047000.0,N
1657689035.3,286047000.9,N
1657689055.2,286046998.6,N
1657689075.9,286047001.1,N
1657689095.7,286047001.1,N
1657689115.6,286046999.9,N
1657689135.4,286047000.8,N
1657689155.3,286047001.0,N
1657689175.1,286047000.4,N
1657689176.0,286047000.4,N
1657689195.8,286047000.2,N
1657689215.7,286047000.1,N
1657689235.5,286047000.4,N
1657689255.3,286046998.1,Y
1657689275.2,286047000.7,P
1657689295.0,286047000.8,P
1657689295.9,286047000.8,P
1657689315.8,286046998.6,Y
1657689335.6,286046999.0,P
1657689355.4,286046999.3,N
1657689375.3,286046996.6,P
1657689395.1,286046999.4,N
1657689415.8,286046998.7,N
1657689435.7,286046996.5,N
1657689455.5,286046998.9,N
1657689475.4,286046999.6,N
1657689495.2,286046999.3,N
1657689515.0,286047001.2,N
1657689515.9,286047001.2,N
1657689535.8,286047001.0,N
1657689555.6,286047000.6,N
1657689575.4,286047001.1,N
1657689595.3,286047000.3,N
1657689615.1,286047000.8,N
1657689635.9,286046999.3,N
1657689655.7,286046999.1,N
1657689675.5,286046999.1,N
1657689695.4,286046998.8,N
1657689715.2,286046998.8,N
1657689735.0,286046999.0,N
1657689736.0,286046999.0,N
1657689755.8,286046996.6,N
1657689775.6,286046999.5,N
1657689795.5,286046996.9,N
1657689815.3,286046997.4,N
1657689835.1,286046999.5,N
1657689855.9,286046998.6,N
1657689875.7,286046998.4,N
1657689895.5,286046998.4,N
1657689915.4,286046998.6,N
1657689935.2,286046998.7,N
1657689955.1,286046999.0,N
1657689956.0,286046999.0,N
1657689975.8,286046997.1,N
1657689995.6,286046997.1,N
1657690015.5,286046997.7,N
1657690035.3,286046997.6,N
1657690055.1,286046994.9,Y
1657690075.9,286046996.8,P
1657690095.7,286046996.6,P
1657690115.6,286046998.9,N
1657690135.4,286046999.1,N
1657690155.2,286046998.8,N
1657690175.1,286046998.1,N
1657690176.0,286046998.1,N
1657690195.8,286046998.6,N
1657690215.7,286046999.0,N
1657690235.5,286046999.1,N
1657690255.3,286046998.7,N
1657690275.2,286046996.7,Y
1657690295.0,286046998.3,P
1657690295.9,286046998.3,P
1657690315.8,286046998.7,P
1657690335.6,286046998.9,Y
1657690355.4,286047002.7,P
1657690375.3,286047000.8,N
1657690395.1,286047000.4,N
1657690415.8,286046999.7,N
1657690435.7,286047002.0,N
1657690455.5,286047002.4,N
1657690475.4,286047000.6,N
1657690495.2,286047000.0,N
1657690515.0,286047002.6,N
1657690515.9,286047002.6,N
1657690535.8,286047002.7,N
1657690555.6,286046999.8,N
1657690575.4,286047002.5,N
1657690595.3,286047001.3,N
1657690615.1,286047003.9,N
1657690635.9,286047001.6,N
1657690655.7,286047002.6,N
1657690675.5,286047002.3,N
1657690695.4,286047002.3,N
1657690715.2,286047002.0,N
1657690735.1,286046999.7,N
1657690736.0,286046999.7,N
1657690755.8,286046999.8,N
1657690775.6,286046999.9,N
1657690795.5,286047000.1,N
1657690815.3,286047002.8,N
1657690835.2,286046999.9,N
1657690855.9,286047002.6,N
1657690875.7,286047002.8,N
1657690895.6,286047002.4,N
1657690915.4,286047002.8,N
1657690935.2,286047002.3,N
1657690955.1,286047002.2,N
1657690956.0,286047002.2,N
1657690975.8,286047001.8,N
1657690995.7,286047001.7,N
1657691015.5,286047001.6,N
1657691035.3,286047002.4,N
1657691055.2,286047004.4,Y
1657691075.0,286047000.5,P
1657691075.9,286047000.5,N
1657691095.8,286047000.4,N
1657691115.6,286047000.4,N
1657691135.4,286047001.0,N
1657691155.3,286047001.2,N
1657691175.1,286047000.3,N
1657691195.8,286047000.1,N
1657691215.7,286047000.3,N
1657691235.5,286047000.1,N
1657691255.4,286047001.0,N
1657691275.2,286047001.2,N
1657691295.0,286047001.2,N
1657691295.9,286047001.2,N
1657691315.8,286047001.1,N
1657691335.6,286046998.2,Y
1657691355.4,286046999.2,P
1657691375.3,286046996.8,P
1657691395.1,286046997.0,N
1657691415.9,286046996.6,N
1657691435.7,286046998.5,N
1657691455.5,286046998.4,N
1657691475.4,286046999.4,N
1657691495.2,286046996.9,N
1657691515.0,286046997.2,N
1657691515.9,286046997.2,N
1657691535.8,286046997.6,N
1657691555.6,286046996.6,N
1657691575.5,286046997.5,N
1657691595.3,286046994.9,Y
1657691615.1,286047000.7,P
1657691635.9,286046998.1,N
1657691655.7,286047000.5,N
1657691675.5,286047001.2,N
1657691695.4,286047001.1,N
1657691715.2,286047001.1,N
1657691735.1,286047001.2,N
1657691736.0,286047001.2,N
1657691755.8,286047000.7,N
1657691775.6,286046998.1,N
1657691795.5,286047001.2,N
1657691815.3,286047001.0,N
1657691835.2,286047000.1,N
1657691855.9,286047000.5,N
1657691875.7,286047000.6,N
1657691895.6,286046998.5,N
1657691915.4,286047000.9,N
1657691935.2,286047000.5,N
1657691955.1,286047001.2,N
1657691956.0,286047001.2,N
1657691975.8,286047000.5,N
1657691995.7,286047001.2,N
